period_start,C,m1,H,J0,J1,J2,J3,J4,J5,JA,JB,JC,JD,JJ,JK,JN,#
2017-12-14 00:04:55,0.11,4.77,0.00,11.51,14.28,17.80,14.85,47.58,1038.61,2073.24,1978.28,2131.53,2441.18,599.95,633.45,39.66,0000 0000 0000 0000 000000
2017-12-14 00:09:56,0.11,4.77,0.00,11.50,14.27,17.77,14.78,47.67,1038.59,2073.39,1977.23,2130.82,2440.42,599.85,633.34,39.71,0000 0000 0000 0000 000000
2017-12-14 00:14:57,0.10,4.78,0.00,11.50,14.27,17.79,14.87,47.73,1038.59,2073.63,1976.14,2130.05,2439.79,599.91,633.41,39.76,0000 0000 0000 0000 000000
2017-12-14 00:19:59,0.09,4.78,0.00,11.49,14.27,17.79,14.90,47.85,1038.59,2073.61,1975.16,2129.35,2438.96,600.24,633.88,39.81,0000 0000 0000 0000 000000
2017-12-14 00:25:00,0.08,4.79,0.00,11.47,14.25,17.76,14.85,47.68,1038.58,2073.75,1974.24,2128.79,2438.10,599.87,633.46,39.86,0000 0000 0000 0000 000000
2017-12-14 00:30:01,0.11,4.79,0.00,11.47,14.24,17.80,14.85,47.73,1038.59,2073.81,1973.30,2128.05,2437.41,600.02,633.61,39.91,0000 0000 0000 0000 000000
2017-12-14 00:35:02,0.10,4.80,0.00,11.47,14.24,17.76,14.80,47.78,1038.58,2073.91,1972.35,2127.37,2436.73,599.80,633.31,39.97,0000 0000 0000 0000 000000
2017-12-14 00:40:04,0.06,4.80,0.00,11.46,14.24,17.80,14.88,47.81,1038.58,2073.86,1971.39,2126.79,2435.98,600.00,633.53,40.02,0000 0000 0000 0000 000000
2017-12-14 00:45:05,0.09,4.81,0.00,11.46,14.24,17.76,14.82,47.85,1038.59,2073.91,1970.45,2126.03,2435.14,599.95,633.56,40.07,0000 0000 0000 0000 000000
2017-12-14 00:50:06,0.10,4.81,0.00,11.46,14.24,17.77,14.81,47.83,1038.57,2073.96,1969.64,2125.33,2434.34,599.75,633.30,40.12,0000 0000 0000 0000 000000
2017-12-14 00:55:08,0.07,4.82,0.00,11.47,14.24,17.74,14.86,47.83,1038.56,2073.92,1968.72,2124.76,2433.58,600.26,633.70,40.17,0000 0000 0000 0000 000000
2017-12-14 01:00:09,0.07,4.82,0.00,11.47,14.24,17.75,14.80,47.82,1038.57,2073.90,1967.79,2124.03,2432.82,599.96,633.61,40.22,0000 0000 0000 0000 000000
2017-12-14 01:05:10,0.10,4.83,0.00,11.48,14.24,17.76,14.81,47.69,1038.57,2073.95,1966.88,2123.31,2432.03,600.22,633.82,40.27,0000 0000 0000 0000 000000
2017-12-14 01:10:12,0.08,4.83,0.00,11.48,14.24,17.75,14.75,47.63,1038.56,2073.91,1965.89,2122.70,2431.28,599.87,633.38,40.32,0000 0000 0000 0000 000000
2017-12-14 01:15:13,0.07,4.83,0.00,11.48,14.23,17.75,14.81,47.68,1038.55,2073.94,1964.95,2122.00,2430.63,600.19,633.61,40.37,0000 0000 0000 0000 000000
2017-12-14 01:20:14,0.09,4.84,0.00,11.47,14.22,17.74,14.83,47.72,1038.59,2073.92,1963.92,2121.22,2429.90,599.85,633.40,40.42,0000 0000 0000 0000 000000
2017-12-14 01:25:16,0.09,4.84,0.00,11.47,14.22,17.76,14.89,47.70,1038.59,2073.93,1962.93,2120.67,2429.08,600.34,633.89,40.47,0000 0000 0000 0000 000000
2017-12-14 01:30:17,0.07,4.85,0.00,11.45,14.22,17.76,14.72,47.63,1038.59,2073.95,1961.95,2119.97,2428.33,599.67,633.56,40.52,0000 0000 0000 0000 000000
2017-12-14 01:35:19,0.10,4.85,0.00,11.45,14.22,17.74,14.88,47.75,1038.59,2073.94,1960.92,2119.16,2427.69,600.12,633.90,40.57,0000 0000 0000 0000 000000
2017-12-14 01:40:20,0.08,4.86,0.00,11.45,14.22,17.73,15.02,47.77,1038.59,2073.91,1960.05,2118.58,2426.83,600.53,634.25,40.62,0000 0000 0000 0000 000000
2017-12-14 01:45:21,0.07,4.86,0.00,11.46,14.22,17.75,14.76,47.73,1038.59,2073.97,1959.23,2117.98,2426.04,600.02,633.66,40.67,0000 0000 0000 0000 000000
2017-12-14 01:50:22,0.10,4.87,0.00,11.45,14.21,17.72,14.91,47.85,1038.59,2073.98,1958.21,2117.20,2425.36,600.22,633.87,40.72,0000 0000 0000 0000 000000
2017-12-14 01:55:24,0.07,4.87,0.00,11.45,14.21,17.70,14.80,47.77,1038.59,2073.96,1957.37,2116.70,2424.61,599.86,633.51,40.78,0000 0000 0000 0000 000000
2017-12-14 02:00:25,0.07,4.87,0.00,11.44,14.21,17.70,14.85,47.87,1038.59,2073.95,1956.35,2116.02,2423.99,599.91,633.73,40.83,0000 0000 0000 0000 000000
2017-12-14 02:05:27,0.10,4.88,0.00,11.44,14.20,17.71,14.88,47.84,1038.59,2073.97,1955.45,2115.35,2423.31,600.12,633.78,40.88,0000 0000 0000 0000 000000
2017-12-14 02:10:28,0.03,4.88,0.00,11.43,14.20,17.70,14.82,47.83,1038.59,2073.99,1954.68,2114.97,2422.90,599.99,633.84,40.93,0000 0000 0000 0000 000000
2017-12-14 02:15:30,0.08,4.89,0.00,11.44,14.19,17.70,14.83,47.75,1038.59,2073.98,1953.97,2114.23,2422.09,599.91,633.49,40.98,0000 0000 0000 0000 000000
2017-12-14 02:20:31,0.09,4.89,0.00,11.44,14.19,17.71,14.80,47.75,1038.59,2073.97,1953.12,2113.72,2421.24,599.84,633.42,41.03,0000 0000 0000 0000 000000
2017-12-14 02:25:33,0.07,4.89,0.00,11.45,14.19,17.73,14.84,47.73,1038.59,2073.98,1952.28,2113.02,2420.58,599.86,633.46,41.08,0000 0000 0000 0000 000000
2017-12-14 02:30:34,0.08,4.90,0.00,11.44,14.19,17.70,14.82,47.72,1038.59,2073.97,1951.45,2112.40,2419.88,600.09,633.70,41.13,0000 0000 0000 0000 000000
2017-12-14 02:35:36,0.08,4.90,0.00,11.44,14.19,17.73,14.89,47.80,1038.59,2073.97,1950.42,2111.81,2419.06,600.27,633.77,41.18,0000 0000 0000 0000 000000
2017-12-14 02:40:37,0.09,4.91,0.00,11.44,14.19,17.69,14.82,47.71,1038.59,2073.97,1949.54,2111.05,2418.41,600.17,633.75,41.23,0000 0000 0000 0000 000000
2017-12-14 02:45:39,0.06,4.91,0.00,11.45,14.19,17.72,14.83,47.67,1038.59,2073.97,1948.63,2110.78,2417.85,600.07,633.85,41.28,0000 0000 0000 0000 000000
2017-12-14 02:50:40,0.09,4.91,0.00,11.47,14.19,17.73,14.70,47.72,1038.58,2073.97,1947.65,2110.04,2417.08,599.93,633.57,41.33,0000 0000 0000 0000 000000
2017-12-14 02:55:42,0.09,4.92,0.00,11.45,14.19,17.71,14.72,47.73,1038.56,2073.98,1946.86,2109.42,2416.33,599.61,633.12,41.38,0000 0000 0000 0000 000000
2017-12-14 03:00:43,0.06,4.92,0.00,11.46,14.19,17.71,14.87,47.81,1038.57,2073.99,1945.88,2108.85,2415.78,600.09,633.62,41.43,0000 0000 0000 0000 000000
2017-12-14 03:05:44,0.08,4.93,0.00,11.45,14.19,17.71,14.82,47.82,1038.58,2073.98,1945.02,2108.06,2415.01,600.08,633.69,41.48,0000 0000 0000 0000 000000
2017-12-14 03:10:46,0.09,4.93,0.00,11.46,14.19,17.69,14.88,47.83,1038.58,2073.98,1944.17,2107.57,2414.23,600.30,633.93,41.53,0000 0000 0000 0000 000000
2017-12-14 03:15:47,0.07,4.93,0.00,11.47,14.19,17.70,14.75,47.71,1038.55,2073.99,1943.36,2106.98,2413.58,600.08,633.56,41.58,0000 0000 0000 0000 000000
2017-12-14 03:20:49,0.08,4.94,0.00,11.46,14.19,17.67,14.84,47.73,1038.49,2073.99,1942.50,2106.25,2412.93,600.13,633.64,41.63,0000 0000 0000 0000 000000
2017-12-14 03:25:50,0.05,4.94,0.00,11.46,14.19,17.69,14.75,47.82,1038.58,2073.99,1941.75,2105.85,2412.08,599.93,633.58,41.69,0000 0000 0000 0000 000000
2017-12-14 03:30:52,0.08,4.95,0.00,11.45,14.19,17.68,14.84,47.77,1038.59,2073.98,1941.04,2105.07,2411.42,600.31,633.93,41.74,0000 0000 0000 0000 000000
2017-12-14 03:35:53,0.09,4.95,0.00,11.45,14.20,17.69,14.85,47.64,1038.59,2073.98,1940.30,2104.56,2410.70,600.41,634.10,41.79,0000 0000 0000 0000 000000
2017-12-14 03:40:54,0.06,4.95,0.00,11.46,14.20,17.71,14.93,47.62,1038.59,2073.97,1939.40,2103.99,2410.00,600.30,633.99,41.84,0000 0000 0000 0000 000000
2017-12-14 03:45:56,0.10,4.96,0.00,11.49,14.19,17.71,14.84,47.68,1038.58,2073.96,1938.44,2103.24,2409.25,600.06,633.64,41.89,0000 0000 0000 0000 000000
2017-12-14 03:50:57,0.07,4.96,0.00,11.47,14.19,17.68,14.81,47.59,1038.58,2073.97,1937.67,2102.77,2408.60,600.07,633.63,41.94,0000 0000 0000 0000 000000
2017-12-14 03:55:58,0.07,4.97,0.00,11.47,14.19,17.72,14.80,47.71,1038.59,2073.96,1936.71,2102.03,2408.00,599.94,633.53,41.99,0000 0000 0000 0000 000000
2017-12-14 04:01:00,0.08,4.97,0.00,11.47,14.19,17.68,14.85,47.73,1038.59,2073.97,1935.94,2101.38,2407.23,600.04,633.56,42.04,0000 0000 0000 0000 000000
2017-12-14 04:06:01,0.07,4.97,0.00,11.47,14.19,17.70,14.83,47.73,1038.59,2073.95,1935.07,2100.85,2406.41,599.98,633.62,42.09,0000 0000 0000 0000 000000
2017-12-14 04:11:03,0.08,4.98,0.00,11.49,14.19,17.71,14.81,47.64,1038.59,2073.92,1934.17,2100.05,2405.75,600.14,633.60,42.14,0000 0000 0000 0000 000000
2017-12-14 04:16:04,0.09,4.98,0.00,11.49,14.19,17.70,14.93,47.65,1038.58,2073.94,1933.41,2099.57,2405.02,600.41,633.98,42.19,0000 0000 0000 0000 000000
2017-12-14 04:21:05,0.07,4.99,0.00,11.49,14.19,17.70,14.77,47.63,1038.55,2073.92,1932.50,2099.00,2404.24,599.58,633.21,42.24,0000 0000 0000 0000 000000
2017-12-14 04:26:07,0.08,4.99,0.00,11.48,14.19,17.70,14.80,47.60,1038.56,2073.96,1931.71,2098.29,2403.77,599.88,633.41,42.29,0000 0000 0000 0000 000000
2017-12-14 04:31:08,0.06,5.00,0.00,11.48,14.19,17.70,14.73,47.63,1038.56,2073.96,1930.86,2097.83,2403.01,599.99,633.54,42.34,0000 0000 0000 0000 000000
2017-12-14 04:36:10,0.08,5.00,0.00,11.49,14.19,17.73,14.85,47.70,1038.57,2073.97,1929.95,2097.06,2402.23,600.06,633.61,42.39,0000 0000 0000 0000 000000
2017-12-14 04:41:11,0.09,5.00,0.00,11.48,14.19,17.74,14.66,47.73,1038.59,2073.98,1929.03,2096.50,2401.63,599.73,633.36,42.44,0000 0000 0000 0000 000000
2017-12-14 04:46:12,0.05,5.01,0.00,11.48,14.19,17.73,14.83,47.75,1038.57,2073.98,1928.16,2095.99,2401.00,600.06,633.61,42.49,0000 0000 0000 0000 000000
2017-12-14 04:51:13,0.11,5.01,0.00,11.49,14.19,17.72,14.80,47.75,1038.59,2073.98,1927.32,2095.25,2400.36,599.99,633.61,42.55,0000 0000 0000 0000 000000
2017-12-14 04:56:15,0.04,5.02,0.00,11.48,14.19,17.72,14.84,47.68,1038.59,2073.98,1926.46,2094.91,2399.96,600.24,633.89,42.60,0000 0000 0000 0000 000000
2017-12-14 05:01:17,0.08,5.02,0.00,11.49,14.19,17.72,14.77,47.72,1038.59,2073.98,1925.91,2094.15,2399.12,599.65,633.17,42.65,0000 0000 0000 0000 000000
2017-12-14 05:06:18,0.09,5.02,0.00,11.49,14.19,17.73,14.86,47.71,1038.59,2073.98,1925.03,2093.60,2398.19,600.21,633.63,42.70,0000 0000 0000 0000 000000
2017-12-14 05:11:19,0.08,5.03,0.00,11.49,14.19,17.73,14.78,47.58,1038.58,2073.98,1924.06,2092.91,2397.41,599.84,633.27,42.75,0000 0000 0000 0000 000000
2017-12-14 05:16:20,0.10,5.03,0.00,11.49,14.19,17.74,14.82,47.67,1038.51,2073.98,1923.13,2092.08,2396.60,600.16,633.69,42.80,0000 0000 0000 0000 000000
2017-12-14 05:21:22,0.09,5.04,0.00,11.49,14.19,17.74,14.69,47.62,1038.54,2073.95,1922.12,2091.38,2395.82,600.19,633.77,42.85,0000 0000 0000 0000 000000
2017-12-14 05:26:23,0.07,5.04,0.00,11.50,14.19,17.74,14.84,47.59,1038.58,2073.96,1921.18,2090.83,2395.04,599.76,633.27,42.90,0000 0000 0000 0000 000000
2017-12-14 05:31:25,0.09,5.05,0.00,11.50,14.19,17.70,14.83,47.64,1038.55,2073.97,1920.32,2090.05,2394.33,600.08,633.67,42.95,0000 0000 0000 0000 000000
2017-12-14 05:36:26,0.09,5.05,0.00,11.50,14.19,17.73,14.79,47.77,1038.49,2073.96,1919.54,2089.41,2393.74,599.78,633.18,43.00,0000 0000 0000 0000 000000
2017-12-14 05:41:27,0.05,5.05,0.00,11.49,14.19,17.74,14.98,47.74,1038.41,2073.97,1918.73,2088.96,2393.02,600.43,633.91,43.05,0000 0000 0000 0000 000000
2017-12-14 05:46:29,0.08,5.06,0.00,11.49,14.19,17.71,14.89,47.68,1038.47,2073.97,1918.01,2088.18,2392.26,600.38,633.72,43.10,0000 0000 0000 0000 000000
2017-12-14 05:51:30,0.08,5.06,0.00,11.49,14.19,17.73,14.77,47.59,1038.44,2073.97,1917.19,2087.72,2391.59,600.04,633.50,43.15,0000 0000 0000 0000 000000
2017-12-14 05:56:32,0.07,5.07,0.00,11.49,14.19,17.70,14.79,47.49,1038.39,2073.98,1916.22,2087.01,2390.81,600.06,633.48,43.20,0000 0000 0000 0000 000000
2017-12-14 06:01:34,0.10,5.07,0.00,11.49,14.19,17.72,14.88,47.48,1038.45,2073.99,1915.26,2086.23,2390.00,599.85,633.30,43.25,0000 0000 0000 0000 000000
2017-12-14 06:06:35,0.11,5.08,0.00,11.49,14.18,17.71,14.87,47.46,1038.51,2073.98,1913.97,2085.52,2389.10,599.93,633.35,43.30,0000 0000 0000 0000 000000
2017-12-14 06:11:36,0.11,5.08,0.00,11.50,14.17,17.71,14.83,47.62,1038.55,2073.97,1912.71,2084.65,2388.15,600.19,633.76,43.35,0000 0000 0000 0000 000000
2017-12-14 06:16:38,0.09,5.09,0.00,11.50,14.17,17.73,14.84,47.77,1038.56,2073.98,1911.50,2083.90,2387.36,600.15,633.65,43.40,0000 0000 0000 0000 000000
2017-12-14 06:21:39,0.09,5.09,0.00,11.50,14.17,17.72,14.88,47.59,1038.55,2073.99,1910.69,2083.08,2386.48,600.09,633.46,43.46,0000 0000 0000 0000 000000
2017-12-14 06:26:40,0.10,5.10,0.00,11.47,14.17,17.74,14.78,47.57,1038.56,2073.98,1909.58,2082.43,2385.81,600.01,633.52,43.51,0000 0000 0000 0000 000000
2017-12-14 06:31:42,0.06,5.10,0.00,11.46,14.17,17.72,14.86,47.55,1038.51,2073.99,1908.78,2081.84,2384.92,600.25,633.81,43.56,0000 0000 0000 0000 000000
2017-12-14 06:36:43,0.10,5.11,0.00,11.48,14.18,17.73,14.78,47.48,1038.53,2073.98,1907.77,2081.04,2384.05,599.84,633.38,43.61,0000 0000 0000 0000 000000
2017-12-14 06:41:44,0.11,5.11,0.00,11.48,14.18,17.74,14.77,47.47,1038.59,2073.98,1906.71,2080.28,2383.24,600.16,633.71,43.66,0000 0000 0000 0000 000000
2017-12-14 06:46:46,0.11,5.12,0.00,11.48,14.18,17.75,14.84,47.48,1038.59,2073.98,1905.56,2079.53,2382.41,599.95,633.49,43.71,0000 0000 0000 0000 000000
2017-12-14 06:51:47,0.07,5.12,0.00,11.49,14.18,17.74,14.80,47.46,1038.59,2073.98,1904.50,2078.88,2381.71,599.87,633.39,43.76,0000 0000 0000 0000 000000
2017-12-14 06:56:49,0.09,5.13,0.00,11.47,14.19,17.71,14.92,47.62,1038.59,2073.97,1903.53,2078.07,2380.97,600.26,633.88,43.81,0000 0000 0000 0000 000000
2017-12-14 07:01:50,0.10,5.13,0.00,11.48,14.18,17.71,14.78,47.60,1038.59,2073.98,1902.60,2077.45,2380.08,600.00,633.57,43.86,0000 0000 0000 0000 000000
2017-12-14 07:06:51,0.10,5.14,0.00,11.47,14.18,17.72,14.80,47.56,1038.59,2073.98,1901.54,2076.69,2379.12,600.08,633.77,43.91,0000 0000 0000 0000 000000
2017-12-14 07:11:52,0.10,5.14,0.00,11.47,14.18,17.73,14.82,47.46,1038.59,2073.96,1900.22,2075.84,2378.22,600.02,633.61,43.96,0000 0000 0000 0000 000000
2017-12-14 07:16:54,0.13,5.15,0.00,11.47,14.19,17.70,14.77,47.48,1038.59,2073.97,1898.75,2074.90,2377.22,600.06,633.68,44.01,0000 0000 0000 0000 000000
2017-12-14 07:21:55,0.12,5.16,0.00,11.48,14.18,17.72,14.92,47.52,1038.59,2073.98,1897.38,2074.00,2376.19,600.14,633.62,44.06,0000 0000 0000 0000 000000
2017-12-14 07:26:57,0.11,5.16,0.00,11.47,14.19,17.71,14.80,47.42,1038.59,2073.98,1896.36,2073.15,2375.32,599.65,633.18,44.11,0000 0000 0000 0000 000000
2017-12-14 07:31:58,0.10,5.17,0.00,11.45,14.19,17.72,14.76,47.49,1038.59,2073.97,1895.31,2072.52,2374.54,599.77,633.36,44.16,0000 0000 0000 0000 000000
2017-12-14 07:36:59,0.07,5.17,0.00,11.46,14.19,17.73,14.85,47.48,1038.59,2073.98,1894.30,2071.89,2373.83,599.84,633.49,44.21,0000 0000 0000 0000 000000
2017-12-14 07:42:01,0.10,5.18,0.00,11.47,14.19,17.71,14.70,47.52,1038.59,2073.99,1893.27,2071.06,2372.92,599.40,632.98,44.26,0000 0000 0000 0000 000000
2017-12-14 07:47:02,0.14,5.18,0.00,11.48,14.19,17.71,14.79,47.42,1038.59,2073.99,1891.92,2070.15,2371.82,599.99,633.54,44.31,0000 0000 0000 0000 000000
2017-12-14 07:52:04,0.13,5.19,0.00,11.47,14.19,17.69,14.88,47.64,1038.59,2073.98,1890.49,2069.14,2370.77,600.22,633.84,44.37,0000 0000 0000 0000 000000
2017-12-14 07:57:05,0.11,5.20,0.00,11.48,14.19,17.66,14.77,47.53,1038.59,2073.97,1889.24,2068.31,2369.71,599.99,633.51,44.42,0000 0000 0000 0000 000000
2017-12-14 08:02:06,0.11,5.20,0.00,11.48,14.19,17.71,14.83,47.57,1038.59,2073.96,1887.99,2067.45,2368.73,599.95,633.56,44.47,0000 0000 0000 0000 000000
2017-12-14 08:07:08,0.11,5.21,0.00,11.48,14.19,17.70,14.87,47.63,1038.59,2073.95,1886.62,2066.64,2367.93,600.12,633.71,44.52,0000 0000 0000 0000 000000
2017-12-14 08:12:09,0.10,5.22,0.00,11.47,14.19,17.69,14.77,47.56,1038.59,2073.97,1885.43,2065.86,2367.09,600.21,633.84,44.57,0000 0000 0000 0000 000000
2017-12-14 08:17:10,0.10,5.22,0.00,11.47,14.20,17.71,14.82,47.50,1038.59,2073.97,1884.25,2065.03,2366.27,600.16,633.75,44.62,0000 0000 0000 0000 000000
2017-12-14 08:22:12,0.11,5.23,0.00,11.47,14.20,17.70,14.79,47.51,1038.59,2073.97,1883.09,2064.17,2365.40,599.98,633.51,44.67,0000 0000 0000 0000 000000
2017-12-14 08:27:13,0.12,5.23,0.00,11.47,14.21,17.69,14.89,47.67,1038.53,2073.98,1881.90,2063.41,2364.52,600.18,633.75,44.72,0000 0000 0000 0000 000000
2017-12-14 08:32:14,0.10,5.24,0.00,11.45,14.21,17.66,14.74,47.51,1038.57,2073.97,1880.83,2062.67,2363.52,599.93,633.61,44.77,0000 0000 0000 0000 000000
2017-12-14 08:37:15,0.10,5.24,0.00,11.44,14.22,17.66,14.79,47.44,1038.59,2073.97,1879.71,2061.90,2362.58,599.94,633.61,44.82,0000 0000 0000 0000 000000
2017-12-14 08:42:17,0.10,5.25,0.00,11.45,14.22,17.70,14.79,47.45,1038.59,2073.96,1878.60,2061.07,2361.84,600.14,633.76,44.87,0000 0000 0000 0000 000000
2017-12-14 08:47:18,0.11,5.25,0.00,11.47,14.22,17.71,14.86,47.52,1038.59,2073.97,1877.43,2060.32,2360.95,600.20,633.86,44.92,0000 0000 0000 0000 000000
2017-12-14 08:52:19,0.11,5.26,0.00,11.44,14.22,17.72,14.82,47.53,1038.59,2073.97,1876.23,2059.54,2360.04,599.82,633.42,44.97,0000 0000 0000 0000 000000
2017-12-14 08:57:20,0.11,5.27,0.00,11.45,14.22,17.70,14.82,47.57,1038.59,2073.96,1874.99,2058.71,2359.04,600.15,633.91,45.02,0000 0000 0000 0000 000000
2017-12-14 09:02:21,0.12,5.27,0.00,11.47,14.22,17.71,14.85,47.53,1038.59,2073.96,1873.80,2057.89,2358.09,600.13,633.74,45.07,0000 0000 0000 0000 000000
2017-12-14 09:07:23,0.12,5.28,0.00,11.46,14.22,17.69,14.82,47.52,1038.59,2073.93,1872.53,2057.02,2357.13,600.09,633.70,45.12,0000 0000 0000 0000 000000
2017-12-14 09:12:24,0.12,5.28,0.00,11.46,14.22,17.68,14.91,47.62,1038.59,2073.95,1871.38,2056.14,2356.15,599.89,633.55,45.17,0000 0000 0000 0000 000000
2017-12-14 09:17:25,0.11,5.29,0.00,11.45,14.22,17.70,14.88,47.63,1038.59,2073.97,1870.10,2055.34,2355.31,600.12,633.69,45.23,0000 0000 0000 0000 000000
2017-12-14 09:22:26,0.10,5.29,0.00,11.46,14.21,17.70,14.71,47.56,1038.59,2073.98,1868.89,2054.68,2354.53,599.76,633.36,45.28,0000 0000 0000 0000 000000
2017-12-14 09:27:28,0.12,5.30,0.00,11.47,14.21,17.70,14.85,47.55,1038.59,2073.97,1867.68,2053.82,2353.53,599.98,633.56,45.33,0000 0000 0000 0000 000000
2017-12-14 09:32:29,0.11,5.31,0.00,11.46,14.20,17.70,14.80,47.57,1038.59,2073.96,1866.48,2052.96,2352.57,599.89,633.74,45.38,0000 0000 0000 0000 000000
2017-12-14 09:37:31,0.11,5.31,0.00,11.46,14.19,17.70,14.75,47.63,1038.59,2073.98,1865.15,2052.09,2351.66,599.83,633.40,45.43,0000 0000 0000 0000 000000
2017-12-14 09:42:32,0.12,5.32,0.00,11.46,14.19,17.73,14.80,47.54,1038.59,2073.96,1863.88,2051.25,2350.68,600.13,633.65,45.48,0000 0000 0000 0000 000000
2017-12-14 09:47:34,0.13,5.32,0.00,11.46,14.19,17.71,14.86,47.53,1038.59,2073.96,1862.61,2050.41,2349.75,599.95,633.42,45.53,0000 0000 0000 0000 000000
2017-12-14 09:52:35,0.10,5.33,0.00,11.45,14.19,17.71,14.79,47.51,1038.59,2073.93,1861.40,2049.62,2348.85,599.73,633.39,45.58,0000 0000 0000 0000 000000
2017-12-14 09:57:36,0.08,5.34,0.00,11.45,14.19,17.72,14.86,47.60,1038.59,2073.97,1860.22,2048.92,2348.00,599.97,633.64,45.63,0000 0000 0000 0000 000000
2017-12-14 10:02:37,0.12,5.34,0.00,11.44,14.19,17.72,14.79,47.58,1038.60,2073.97,1859.09,2048.07,2347.14,599.95,633.60,45.68,0000 0000 0000 0000 000000
2017-12-14 10:07:39,0.11,5.35,0.00,11.44,14.19,17.74,14.83,47.53,1038.61,2073.97,1857.95,2047.22,2346.28,600.18,633.67,45.73,0000 0000 0000 0000 000000
2017-12-14 10:12:40,0.06,5.35,0.00,11.44,14.18,17.74,14.78,47.55,1038.62,2073.97,1857.03,2046.96,2345.55,599.88,633.55,45.78,0000 0000 0000 0000 000000
2017-12-14 10:17:41,0.10,5.36,0.00,11.45,14.17,17.74,14.78,47.58,1038.60,2073.96,1856.13,2046.15,2344.69,599.92,633.43,45.83,0000 0000 0000 0000 000000
2017-12-14 10:22:43,0.08,5.36,0.00,11.46,14.17,17.72,14.84,47.57,1038.60,2073.96,1855.18,2045.61,2344.00,599.85,633.44,45.88,0000 0000 0000 0000 000000
2017-12-14 10:27:44,0.08,5.37,0.00,11.47,14.17,17.70,14.83,47.43,1038.62,2073.94,1854.37,2045.01,2343.22,599.97,633.51,45.93,0000 0000 0000 0000 000000
2017-12-14 10:32:45,0.10,5.37,0.00,11.46,14.17,17.70,14.78,47.46,1038.61,2073.95,1853.41,2044.26,2342.61,599.90,633.63,45.98,0000 0000 0000 0000 000000
2017-12-14 10:37:47,0.05,5.37,0.00,11.46,14.17,17.70,14.86,47.57,1038.61,2073.98,1852.55,2043.92,2341.99,600.07,633.69,46.03,0000 0000 0000 0000 000000
2017-12-14 10:42:48,0.09,5.38,0.00,11.47,14.17,17.70,14.82,47.60,1038.60,2073.98,1851.79,2043.12,2341.21,600.39,633.96,46.08,0000 0000 0000 0000 000000
2017-12-14 10:47:50,0.08,5.38,0.00,11.48,14.16,17.72,14.82,47.48,1038.60,2073.96,1850.90,2042.64,2340.68,599.96,633.60,46.14,0000 0000 0000 0000 000000
2017-12-14 10:52:51,0.06,5.39,0.00,11.47,14.15,17.71,14.75,47.58,1038.60,2073.97,1849.99,2042.02,2340.00,599.87,633.49,46.19,0000 0000 0000 0000 000000
2017-12-14 10:57:52,0.11,5.39,0.00,11.47,14.14,17.72,14.77,47.49,1038.60,2073.97,1849.07,2041.28,2339.19,599.96,633.54,46.24,0000 0000 0000 0000 000000
2017-12-14 11:02:54,0.07,5.40,0.00,11.46,14.14,17.72,14.84,47.57,1038.60,2073.97,1848.19,2040.86,2338.53,600.09,633.71,46.29,0000 0000 0000 0000 000000
2017-12-14 11:07:55,0.09,5.40,0.00,11.44,14.14,17.71,14.74,47.48,1038.60,2073.96,1847.34,2040.08,2337.82,599.65,633.24,46.34,0000 0000 0000 0000 000000
2017-12-14 11:12:57,0.09,5.40,0.00,11.44,14.14,17.73,14.88,47.62,1038.60,2073.98,1846.33,2039.62,2337.04,599.86,633.51,46.39,0000 0000 0000 0000 000000
2017-12-14 11:17:58,0.08,5.41,0.00,11.44,14.14,17.75,14.81,47.41,1038.60,2073.99,1845.39,2038.99,2336.44,599.77,633.39,46.44,0000 0000 0000 0000 000000
2017-12-14 11:22:59,0.08,5.41,0.00,11.43,14.14,17.69,14.80,47.61,1038.60,2073.98,1844.55,2038.25,2335.91,600.10,633.91,46.49,0000 0000 0000 0000 000000
2017-12-14 11:28:00,0.06,5.42,0.00,11.43,14.14,17.72,14.85,47.63,1038.59,2073.99,1843.75,2037.92,2335.09,600.11,633.84,46.54,0000 0000 0000 0000 000000
2017-12-14 11:33:02,0.10,5.42,0.00,11.42,14.13,17.71,14.83,47.62,1038.59,2073.98,1842.89,2037.11,2334.48,599.93,633.61,46.59,0000 0000 0000 0000 000000
2017-12-14 11:38:03,0.07,5.43,0.00,11.42,14.12,17.71,14.88,47.52,1038.59,2073.98,1841.97,2036.67,2333.89,600.09,633.83,46.64,0000 0000 0000 0000 000000
2017-12-14 11:43:04,0.08,5.43,0.00,11.42,14.12,17.68,14.86,47.67,1038.59,2073.98,1841.05,2036.02,2333.10,600.11,633.79,46.69,0000 0000 0000 0000 000000
2017-12-14 11:48:05,0.10,5.43,0.00,11.42,14.12,17.69,14.90,47.67,1038.59,2073.98,1840.18,2035.37,2332.48,600.30,633.99,46.74,0000 0000 0000 0000 000000
2017-12-14 11:53:07,0.05,5.44,0.00,11.41,14.12,17.68,14.83,47.62,1038.59,2073.98,1839.41,2034.96,2331.92,600.02,633.73,46.79,0000 0000 0000 0000 000000
2017-12-14 11:58:08,0.09,5.44,0.00,11.42,14.12,17.69,14.74,47.58,1038.59,2073.98,1838.68,2034.22,2331.11,599.83,633.51,46.84,0000 0000 0000 0000 000000
2017-12-14 12:03:09,0.06,5.45,0.00,11.42,14.12,17.69,14.82,47.52,1038.59,2073.98,1837.85,2033.87,2330.63,600.13,633.86,46.89,0000 0000 0000 0000 000000
2017-12-14 12:08:11,0.08,5.45,0.00,11.42,14.12,17.69,14.77,47.42,1038.59,2073.98,1837.04,2033.08,2330.01,599.74,633.51,46.94,0000 0000 0000 0000 000000
2017-12-14 12:13:12,0.07,5.46,0.00,11.42,14.12,17.67,14.79,47.44,1038.59,2073.99,1836.32,2032.86,2329.38,599.89,633.57,46.99,0000 0000 0000 0000 000000
2017-12-14 12:18:13,0.07,5.46,0.00,11.42,14.12,17.67,14.80,47.49,1038.59,2073.99,1835.71,2032.10,2328.84,599.83,633.48,47.05,0000 0000 0000 0000 000000
2017-12-14 12:23:14,0.04,5.46,0.00,11.42,14.12,17.67,14.81,47.52,1038.59,2073.99,1834.98,2031.95,2328.08,600.01,633.80,47.10,0000 0000 0000 0000 000000
2017-12-14 12:28:16,0.09,5.47,0.00,11.40,14.12,17.67,14.81,47.41,1038.59,2073.98,1834.14,2031.16,2327.73,600.32,634.04,47.15,0000 0000 0000 0000 000000
2017-12-14 12:33:17,0.05,5.47,0.00,11.39,14.12,17.67,14.83,47.36,1038.59,2073.98,1833.52,2030.90,2327.04,599.96,633.72,47.20,0000 0000 0000 0000 000000
2017-12-14 12:38:19,0.09,5.47,0.00,11.41,14.11,17.67,14.87,47.37,1038.59,2073.98,1832.66,2030.13,2326.61,599.83,633.64,47.25,0000 0000 0000 0000 000000
2017-12-14 12:43:20,0.04,5.48,0.00,11.41,14.11,17.66,14.84,47.44,1038.59,2073.98,1831.90,2029.84,2326.02,600.12,633.77,47.30,0000 0000 0000 0000 000000
2017-12-14 12:48:21,0.09,5.48,0.00,11.40,14.10,17.64,14.78,47.46,1038.59,2073.99,1831.09,2029.10,2325.58,599.99,633.72,47.35,0000 0000 0000 0000 000000
2017-12-14 12:53:22,0.05,5.48,0.00,11.39,14.09,17.65,14.72,47.45,1038.60,2073.99,1830.41,2028.85,2324.98,599.84,633.62,47.40,0000 0000 0000 0000 000000
2017-12-14 12:58:24,0.09,5.49,0.00,11.39,14.09,17.66,14.85,47.54,1038.63,2073.99,1829.67,2028.07,2324.20,600.20,634.07,47.45,0000 0000 0000 0000 000000